Regional Weather Roundup
Issued by NWS

Home | Current Version | Previous Version | Text Only | Print | Product List | Glossary On
Versions: 1 2 3 4 5 6 7 8 9 10 11 12 13 14 15 16 17 18 19 20 21 22 23 24 25 26 27 28 29 30 31 32 33 34 35 36 37 38 39 40 41 42 43 44 45 46 47 48 49 50
000
ASUS46 KPQR 242310
RWROR

OREGON REGIONAL WEATHER ROUNDUP
NATIONAL WEATHER SERVICE PORTLAND OR
400 PM PDT FRI MAR 24 2017

NOTE: "FAIR" INDICATES FEW OR NO CLOUDS BELOW 12,000 FEET WITH
NO SIGNIFICANT WEATHER AND/OR OBSTRUCTIONS TO VISIBILITY.

ORZ001>013-250000-
NORTHWEST OREGON


CITY           SKY/WX    TMP DP  RH WIND       PRES   REMARKS
ASTORIA        CLOUDY    48  44  86 SW14      29.89R
NEWPORT        LGT RAIN  50  46  87 S21G30    29.98R
PORTLAND       LGT RAIN  51  47  86 SW9       29.93R
VANCOUVER WA   LGT RAIN  51  48  89 S8        29.93R FOG
SCAPPOOSE      CLOUDY    53  47  79 SE8       29.91R
HILLSBORO      PTSUNNY   54  48  80 S13       29.90F
AURORA         CLOUDY    54  44  69 S13G22    29.94R
MCMINNVILLE    CLOUDY    53  46  77 S18G24    29.93R
SALEM          LGT RAIN  53  47  79 S13G23    29.94R
CORVALLIS      CLOUDY    54  45  71 S8        29.97R
EUGENE         PTSUNNY   52  46  80 S15       30.00R
$$

ORZ021-028-250000-
SOUTHWEST OREGON


CITY           SKY/WX    TMP DP  RH WIND       PRES   REMARKS
NORTH BEND     CLOUDY    54  50  87 SW16      30.02S
BROOKINGS      HVY RAIN  50  48  93 SE9       30.07S FOG
ROSEBURG       LGT RAIN  53  45  74 VRB3      30.01S
SEXTON SUMMIT  FOG       37  37 100 S10G20    29.98R VSB<1/4 WCI  30
MEDFORD        CLOUDY    51  46  83 NE9       30.03R
$$

ORZ014>016-041-250000-
COLUMBIA GORGE


CITY           SKY/WX    TMP DP  RH WIND       PRES   REMARKS
TROUTDALE      LGT RAIN  54  46  74 SW12G25   29.92R
THE DALLES     MOSUNNY   57  42  57 NW14      29.89S
$$

ORZ029>031-041-044-049-050-061>064-502-503-505>511-250000-
EASTERN OREGON


CITY           SKY/WX    TMP DP  RH WIND       PRES   REMARKS
REDMOND        MOSUNNY   52  26  36 SW13G24   29.90R
BEND           MOSUNNY   50  32  50 SW20      29.92R
PRINEVILLE     MOSUNNY   52  32  46 SW20      29.89R
KLAMATH FALLS  PTSUNNY   45  42  89 W12       29.99S
LAKEVIEW       CLOUDY    43  34  70 S22G31    30.04R
HERMISTON      CLOUDY    51  46  83 SW9       29.90R
PENDLETON      LGT RAIN  48  46  93 W8        29.88S FOG
JOHN DAY       CLOUDY    45  39  78 N7        29.93S
MEACHAM        CLOUDY    42  35  76 CALM      29.89R
LA GRANDE      CLOUDY    46  39  76 SW16      29.91R
BAKER CITY     LGT RAIN  42  38  85 E14       29.93S
BURNS          CLOUDY    45  33  63 S24G30    29.95S
ROME             N/A     54  35  48 SW26      29.94R
ONTARIO        LGT RAIN  52  46  80 SE7       29.98S
$$



USA.gov is the U.S. government's official web portal to all federal, state and local government web resources and services.